Tracking 19245 objects as of 14-Aug-2018
HD Live streaming from Space Station
objects crossing your sky now

FENGYUN 1D

Track FENGYUN 1D now!
10-day predictions
FENGYUN 1D is classified as:


NORAD ID: 27431
Int'l Code: 2002-024B
Perigee: 856.6 km
Apogee: 878.8 km
Inclination: 99.1 °
Period: 102.2 minutes
Semi major axis: 7238 km
RCS: 2.2279 m2 (large)
Launch date: May 15, 2002
Source: People's Republic of China (PRC)
Launch site: Taiyaun Space Center, China (TSC)

Polar-orbiting satellite; carries Multichannel Visible and Infrared Scan Radiometer (MVISR); means "wind and cloud."
aabbcc
Your satellite tracking list
Your tracking list is empty




NASA's NSSDC Master Catalog

Two Line Element Set (TLE):
1 27431U 02024B   18224.86650574 +.00000047 +00000-0 +52933-4 0  9990
2 27431 099.0810 204.4727 0015331 351.7402 008.3513 14.09657268835810
Source of the keplerian elements: AFSPC